Regional Weather Roundup
Issued by NWS

Home | Current Version | Previous Version | Graphics & Text | Print | Product List | Glossary On
Versions: 1 2 3 4 5 6 7 8 9 10 11 12 13 14 15 16 17 18 19 20 21 22 23 24 25 26 27 28 29 30 31 32 33 34 35 36 37 38 39 40 41 42 43 44 45 46 47 48 49 50
000
ASUS43 KFSD 220210
RWRSD

WEATHER ROUNDUP FOR SOUTH DAKOTA
NATIONAL WEATHER SERVICE SIOUX FALLS SD
900 PM CDT MON JUL 21 2014

NOTE: "FAIR" INDICATES FEW OR NO CLOUDS BELOW 12,000 FEET WITH NO
SIGNIFICANT WEATHER AND/OR OBSTRUCTIONS TO VISIBILITY.


SDZ001>005-009-010-012>017-220300-
NORTHWEST AND NORTH CENTRAL SOUTH DAKOTA

CITY           SKY/WX    TMP DP  RH WIND       PRES   REMARKS
BUFFALO          N/A     75  62  64 NE20      29.89R
FAITH            N/A     81  66  60 N17       29.88R
MOBRIDGE       PTCLDY    72  64  76 N10       29.79R
$$

SDZ012>016-024>037-041>051-057-063-072>074-220300-
SOUTHWEST AND SOUTH CENTRAL SOUTH DAKOTA

CITY           SKY/WX    TMP DP  RH WIND       PRES   REMARKS
RAPID CTY ARPT PTCLDY    80  58  46 N16       29.91R
PIERRE         CLEAR     88  66  48 NW8       29.76R
CUSTER         PTCLDY    82  42  24 S3        30.09R
ELLSWORTH AFB  MOCLDY    86  54  33 N14       29.93R
PHILIP         CLEAR     88  57  34 N12       29.83R
PINE RIDGE     PTCLDY    84  62  47 SW7       29.89S
WINNER         FAIR      96  56  26 NW3       29.80R
$$

SDZ004>011-016>023-039-040-220300-
NORTHEAST SOUTH DAKOTA

CITY           SKY/WX    TMP DP  RH WIND       PRES   REMARKS
ABERDEEN       MOCLDY    80  71  74 NW18      29.74R THUNDER
WATERTOWN      CLEAR     81  76  84 S14       29.74F
SISSETON         N/A     81  77  88 S9        29.69R
$$

SDZ017-020-022-023-036>040-048>070-220300-
SOUTHEAST SOUTH DAKOTA

CITY           SKY/WX    TMP DP  RH WIND       PRES   REMARKS
SIOUX FALLS    PTCLDY    84  78  82 S12       29.77F HX  95
HURON          CLEAR     87  77  72 S7        29.72R HX  99
CHAMBERLAIN    CLEAR     89  60  36 NW6       29.77R
MITCHELL       PTCLDY    88  80  77 S7        29.74R HX 104
YANKTON        MOCLDY    84  79  84 SE6       29.76R HX  96
$$

ABBREVIATIONS USED IN REMARKS
   TC - TEMPERATURE IN CELSIUS
  WCI - WIND CHILL INDEX
   HX - HEAT INDEX
  VSB - VISIBILITY



USA.gov is the U.S. government's official web portal to all federal, state and local government web resources and services.